{"data":{"norad_id":66508,"intl_designator":"2025-263Z","name":"STARLINK-35608","alt_names":[],"object_type":"PAYLOAD","status":"ACTIVE","operator":null,"country":"US","launch_date":"2025-11-15","launch_site_code":"AFETR","launch_vehicle":null,"mission":null,"orbit_class":"UNKNOWN","rcs_meters":null,"size_class":null,"mass_kg":null,"dimensions":null,"purposes":["comms"],"wikipedia_slug":null,"has_3d_model":false,"image_url":null,"decayed_at":null,"tle_current":{"epoch":"2026-09-19T06:30:39.882816Z","epoch_age_seconds":195496,"freshness":"STALE","line1":"1 66508U 25263Z   26262.27129494  .00013406  00000+0  49567-3 0  9996","line2":"2 66508  42.9981 337.5340 0001113 239.6418 120.4323 15.27588939 48503","mean_motion":15.27588939,"eccentricity":0.0001113,"inclination_deg":42.9981,"raan_deg":337.534,"arg_perigee_deg":239.6418,"mean_anomaly_deg":120.4323,"bstar":0.00049567,"rev_number":4850,"period_min":94.266197092437,"perigee_km":482.25868255501,"apogee_km":483.78597662177,"semimajor_km":6861.1593295884,"source":"CELESTRAK","updated_at":"2026-09-21T09:00:35.923982Z"}}}